Weather in Ozerki

Russia / Ulyanovsk Oblast     54°16′56″N   49°04′56″E
temp.,
°C
wind,
m/s
gust,
m/s
humid.,
%
clouds,
%
prec.,
mm/h
press.,
hPa
HPBL,
m
21 april, wed
wed2101:00+5se81645100 0.0 1025663
04:00+4se91849100 0.0 1024683
07:00+4se81749100 0.1 1023893
10:00+3se101961100 0.6 1023814
13:00+4sse101860100 0.1 1023840
16:00+2se101986100 1.8 1022688
19:00+2sse91791100 3.9 1022726
22:00+3sse91694100 4.4 1022706
22 april, thu
thu2201:00+3s81595100 0.0 1022610
04:00+3sse61196100 0.0 1023396
07:00+4s51097100 0.0 1024400
10:00+5sse61094100 0.0 1024376
13:00+9s797776 0.0 1025715
16:00+11s7871100 0.0 10241023
19:00+8sse51182100 0.0 1025456
22:00+6sse612875 0.0 1025325
23 april, fri
fri2301:00+4sse511905 0.0 1026256
04:00+3sse47935 0.0 1026135
07:00+4sse46914 0.0 1026160
10:00+9sse56755 0.0 1027462
13:00+13sse33622 0.0 1025783
16:00+14se335554 0.0 10241389
19:00+12ese3667100 0.1 1024200
22:00+8ese3681100 0.1 1023114
24 april, sat
sat2401:00+7ene3685100 0.0 1021121
04:00+6ene3691100 0.0 1019127
07:00+7e3492100 0.0 1018183
10:00+8e3485100 0.0 1016409
13:00+8ese2379100 0.1 1015604
16:00+9ese2277100 0.2 1014594
19:00+8se3483100 0.0 1013340
22:00+6se479278 0.0 1012169
25 april, sun
sun2501:00+6se51090100 0.0 1010314
04:00+6sse61395100 2.3 1007555
07:00+5w6138554 0.6 1011842
10:00+9wsw812555 0.6 10121426
13:00+11wsw8114387 0.0 10132329
16:00+10sw8955100 0.2 10141497
19:00+8sw367267 0.4 1014657
22:00+6sw5107935 0.6 1015422